Tracking 31027 objects as of 19-Jul-2025
HD Live streaming from Space Station
objects crossing your sky now

SERT 2

Track SERT 2 now!
10-day predictions
SERT 2 is classified as:


NORAD ID: 4327
Int'l Code: 1970-009A
Perigee: 1,043.4 km
Apogee: 1,051.8 km
Inclination: 99.2 °
Period: 106.0 minutes
Semi major axis: 7418 km
RCS: 5.0507 m2 (large)
Launch date: February 4, 1970
Source: United States (US)
Launch site: AIR FORCE WESTERN TEST RANGE (AFWTR)
Your satellite tracking list
SL-8 R/B
Track 1 satellite(s)




NASA's NSSDC Master Catalog

Two Line Element Set (TLE):
1 04327U 70009A   25199.62791331  .00000000  00000-0  56519-4 0  9990
2 04327  99.2407 150.9200 0005675  49.8970 123.9685 13.58698390748102
Source of the keplerian elements: AFSPC